Weather Roundup
Issued by NWS Chicago, IL

Home | Current Version | Previous Version | Text Only | Print | Product List | Glossary On
Versions: 1 2 3 4 5 6 7 8 9 10 11 12 13 14 15 16 17 18 19 20 21 22 23 24 25 26 27 28 29 30 31 32 33 34 35 36 37 38 39 40 41 42 43 44 45 46 47 48 49 50
000
NZUS59 KLOT 271908
HRRLOT

CHICAGO AREA WEATHER ROUNDUP
NATIONAL WEATHER SERVICE CHICAGO/ROMEOVILLE IL
200 PM CDT WED JUL 27 2016

NOTE: "FAIR" INDICATES FEW OR NO CLOUDS BELOW 12,000 FEET WITH NO
SIGNIFICANT WEATHER AND/OR OBSTRUCTIONS TO VISIBILITY.

* THESE STATIONS ARE NOT UNDER NWS QUALITY CONTROL. THEY ALSO MAY NOT
  REPORT WEATHER SUCH AS PRECIPITATION OR FOG.

ILZ005-006-012>014-019>023-272000-
NORTHEAST ILLINOIS

CITY           SKY/WX    TMP DP  RH WIND       PRES   REMARKS
OHARE          MOSUNNY   87  63  44 VRB5      29.98F HX  88
MIDWAY         MOSUNNY   88  63  43 SW7       29.97F HX  89
AURORA         MOSUNNY   87  68  52 CALM      29.99F HX  90
LANSING*       SUNNY     86  63  46 CALM      29.99F HX  87
JOLIET*        MOSUNNY   86  70  58 S5        29.99F HX  90
WAUKEGAN       MOSUNNY   88  61  40 SW9       29.97F HX  88
DUPAGE AIRPORT SUNNY     86  63  45 CALM      29.99F HX  87
WHEELING       MOSUNNY   88  61  40 VRB5      29.99F HX  88
KANKAKEE*      SUNNY     87  68  51 CALM      30.01F HX  91
MORRIS*        MOSUNNY   85  69  57 CALM      29.98F HX  89
LEWIS AIRPORT* MOSUNNY   86  62  44 W6        29.99F HX  86
NORTHERLY ISL    N/A     82  70  66 N2          N/A  HX  86
$$

WIZ051-052-058>065-066-070>072-272000-
SOUTHEAST WISCONSIN

CITY           SKY/WX    TMP DP  RH WIND       PRES   REMARKS
MILWAUKEE      PTSUNNY   88  66  48 S9        29.97F HX  90
KENOSHA*       MOSUNNY   88  65  46 VRB7      29.98F HX  90
RACINE*        PTSUNNY   83  65  54 SE10      29.99F HX  85
BURLINGTON     MOSUNNY   87  63  44 S3        29.97F HX  87
WAUKESHA       MOSUNNY   84  64  51 SW7       30.00F HX  86
$$

INZ001>003-010>013-019-020-272000-
NORTHWEST INDIANA

CITY           SKY/WX    TMP DP  RH WIND       PRES   REMARKS
GARY*          MOSUNNY   88  68  51 N6        30.00F HX  91
MICHIGAN CITY* NOT AVBL
RENSSELAER*    NOT AVBL
VALPARAISO     SUNNY     85  65  51 VRB7      30.01F HX  86
$$

LMZ740>746-272000-
SOUTHERN LAKE MICHIGAN

STATION/POSITION TIME  SKY/WX   TEMP WIND        PRES    VSBY
                                AIR  DIR/SP/G
                 (UTC)          (F)  (DEG/KT/KT) (MB)    (MI)
HARRISON CRIB    1800            80  110/  7/  7   N/A
BURNHAM HARBOR   1900            82   80/  3/  8   N/A
CALUMET HARBOR   NOT AVBL
BURNS HARBOR     1800            78   20/  6/  7 1016.9F
MICHIGAN CITY    1800            81  330/  6/  6   N/A
$$

ABBREVIATIONS USED IN REMARKS
   TC - TEMPERATURE IN CELSIUS
  WCI - WIND CHILL INDEX
   HX - HEAT INDEX
  VSB - VISIBILITY
$$



USA.gov is the U.S. government's official web portal to all federal, state and local government web resources and services.